logo
Search for airport 
image banner adimage banner adimage banner ad
image banner ad

ED1741 - Zschopau Klinikum

Located in Zschopau, Germany

ICAO - , IATA -

Data provided by Airmate  

General information

Coordinates: N50°44'2" E13°4'48"
Elevation is 1590 feet MSL.
 
View others Airports in Saxony

Operational data

Special qualification required
Current time UTC:
Current local time:
Weather at : EDAC - Leipzig-Altenburg Airport ( 49 km )
METAR: EDAC 302220Z AUTO 21003KT 9999 // FEW011/// BKN013/// 13/13 Q1005
TAF: TAF EDAC 301700Z 3018/3103 22004KT 9999 FEW012 BKN020 TEMPO 3018/3021 SHRA BKN012 BKN020CB BECMG 3021/3023 BKN009 TEMPO 3022/3103 3000 BR BKN004 PROB30 TEMPO 3023/3103 0700 FG BKN001
View NOTAMs / SUP AIP / TFR affecting this airport [VIEW]
Communications frequencies: [VIEW]

Runways:

Airport contact information

Address: Zschopau Germany

Satellite view of ED1741